TimeAKDT,TemperatureF,Dew PointF,Humidity,Sea Level PressureIn,VisibilityMPH,Wind Direction,Wind SpeedMPH,Gust SpeedMPH,PrecipitationIn,Events,Conditions,WindDirDegrees,DateUTC
12:07 AM,42.8,41.0,93,29.74,1.0,WSW,23.0,31.1,0.00,Rain,Light Rain,250,2013-07-29 08:07:00
12:25 AM,42.8,41.0,93,29.74,2.5,WSW,23.0,29.9,0.00,,Overcast,250,2013-07-29 08:25:00
12:33 AM,42.8,41.0,93,29.74,1.2,WSW,23.0,31.1,0.00,,Overcast,250,2013-07-29 08:33:00
12:44 AM,42.8,41.0,93,29.75,3.0,WSW,24.2,31.1,0.00,,Overcast,250,2013-07-29 08:44:00
12:53 AM,42.1,41.0,96,29.75,4.0,WSW,24.2,31.1,0.00,,Overcast,250,2013-07-29 08:53:00
1:02 AM,42.8,41.0,93,29.75,2.0,WSW,23.0,31.1,0.00,Rain,Light Rain,250,2013-07-29 09:02:00
1:22 AM,42.8,39.2,87,29.75,2.5,WSW,23.0,31.1,0.00,,Overcast,250,2013-07-29 09:22:00
1:37 AM,41.0,39.2,93,29.76,3.0,WSW,23.0,28.8,0.00,,Overcast,250,2013-07-29 09:37:00
1:53 AM,41.0,39.9,96,29.76,10.0,WSW,25.3,34.5,0.00,,Overcast,250,2013-07-29 09:53:00
2:53 AM,39.0,37.9,96,29.78,7.0,WSW,23.0,33.4,N/A,,Overcast,250,2013-07-29 10:53:00
3:53 AM,37.0,35.1,93,29.80,5.0,West,24.2,29.9,N/A,,Overcast,260,2013-07-29 11:53:00
4:53 AM,36.0,34.0,93,29.81,4.0,West,24.2,28.8,N/A,,Overcast,260,2013-07-29 12:53:00
5:00 AM,35.6,33.8,93,29.81,1.8,West,23.0,29.9,N/A,,Overcast,260,2013-07-29 13:00:00
5:10 AM,35.6,33.8,93,29.82,3.0,West,21.9,29.9,0.00,Rain,Light Rain,260,2013-07-29 13:10:00
5:30 AM,35.6,33.8,93,29.82,2.5,West,23.0,29.9,0.00,,Overcast,260,2013-07-29 13:30:00
5:53 AM,35.1,34.0,96,29.83,1.8,West,20.7,29.9,0.00,,Overcast,260,2013-07-29 13:53:00
6:53 AM,35.1,33.1,92,29.86,1.8,West,21.9,31.1,N/A,,Overcast,270,2013-07-29 14:53:00
7:53 AM,34.0,33.1,96,29.89,2.0,West,23.0,29.9,N/A,,Overcast,270,2013-07-29 15:53:00
7:56 AM,33.8,33.8,100,29.88,1.0,West,24.2,31.1,N/A,,Overcast,270,2013-07-29 15:56:00
8:25 AM,33.8,33.8,100,29.90,2.0,West,23.0,29.9,0.00,,Light Drizzle,280,2013-07-29 16:25:00
8:53 AM,34.0,33.1,96,29.92,2.0,West,21.9,31.1,0.00,,Light Drizzle,280,2013-07-29 16:53:00
9:00 AM,33.8,33.8,100,29.92,1.5,West,24.2,28.8,0.00,,Light Drizzle,280,2013-07-29 17:00:00
9:11 AM,33.8,33.8,100,29.93,3.0,West,24.2,-,0.00,,Overcast,280,2013-07-29 17:11:00
9:53 AM,34.0,32.0,92,29.95,5.0,WNW,21.9,-,0.00,,Overcast,290,2013-07-29 17:53:00
10:15 AM,33.8,32.0,93,29.96,2.0,West,19.6,-,N/A,,Overcast,280,2013-07-29 18:15:00
10:49 AM,33.8,32.0,93,29.98,4.0,WNW,20.7,-,N/A,,Overcast,290,2013-07-29 18:49:00
10:53 AM,33.1,32.0,96,29.99,4.0,WNW,20.7,-,N/A,,Overcast,290,2013-07-29 18:53:00
11:21 AM,33.8,30.2,87,30.00,10.0,WNW,21.9,-,N/A,,Overcast,290,2013-07-29 19:21:00
11:49 AM,33.8,32.0,93,30.02,5.0,WNW,19.6,-,N/A,,Overcast,300,2013-07-29 19:49:00
11:53 AM,34.0,32.0,92,30.02,7.0,WNW,17.3,-,N/A,,Overcast,290,2013-07-29 19:53:00
12:53 PM,34.0,32.0,92,30.05,8.0,WNW,18.4,-,N/A,,Overcast,300,2013-07-29 20:53:00
1:53 PM,35.1,32.0,89,30.07,10.0,WNW,18.4,-,0.00,,Overcast,290,2013-07-29 21:53:00
2:53 PM,34.0,30.9,89,30.09,9.0,WNW,13.8,-,N/A,,Overcast,290,2013-07-29 22:53:00
3:53 PM,35.1,32.0,89,30.12,9.0,WNW,13.8,-,N/A,,Overcast,300,2013-07-29 23:53:00
4:53 PM,34.0,30.9,89,30.13,9.0,WNW,10.4,-,N/A,,Overcast,300,2013-07-30 00:53:00
5:43 PM,33.8,32.0,93,30.13,1.0,West,9.2,-,N/A,,Overcast,280,2013-07-30 01:43:00
5:50 PM,33.8,32.0,93,30.13,0.8,WNW,9.2,-,N/A,,Overcast,290,2013-07-30 01:50:00
5:53 PM,33.1,32.0,96,30.13,0.8,WNW,9.2,-,N/A,,Overcast,300,2013-07-30 01:53:00
6:05 PM,33.8,30.2,87,30.13,6.0,West,8.1,-,N/A,,Overcast,280,2013-07-30 02:05:00
6:44 PM,33.8,32.0,93,30.14,1.8,West,8.1,-,N/A,,Overcast,260,2013-07-30 02:44:00
6:53 PM,33.1,32.0,96,30.14,1.0,West,10.4,-,N/A,,Overcast,270,2013-07-30 02:53:00
7:50 PM,32.0,30.2,93,30.14,0.8,West,5.8,-,N/A,,Overcast,270,2013-07-30 03:50:00
7:53 PM,32.0,30.9,96,30.14,0.5,West,4.6,-,N/A,Fog,Fog,270,2013-07-30 03:53:00
7:59 PM,33.8,30.2,87,30.14,0.8,WSW,5.8,-,N/A,,Overcast,250,2013-07-30 03:59:00
8:53 PM,32.0,30.9,96,30.14,0.5,SW,4.6,-,N/A,Fog,Fog,230,2013-07-30 04:53:00
9:01 PM,32.0,30.2,93,30.14,2.5,Calm,Calm,-,N/A,,Overcast,0,2013-07-30 05:01:00
9:22 PM,32.0,30.2,93,30.14,6.0,Calm,Calm,-,N/A,,Overcast,0,2013-07-30 05:22:00
9:39 PM,33.8,30.2,87,30.14,10.0,SSW,3.5,-,N/A,,Scattered Clouds,200,2013-07-30 05:39:00
9:53 PM,33.1,30.9,92,30.14,10.0,SW,3.5,-,N/A,,Partly Cloudy,230,2013-07-30 05:53:00
10:53 PM,37.0,33.1,86,30.14,10.0,SSE,4.6,-,N/A,,Scattered Clouds,150,2013-07-30 06:53:00
11:53 PM,37.0,34.0,89,30.13,10.0,SSE,3.5,-,N/A,,Mostly Cloudy,160,2013-07-30 07:53:00